This is the latest recevied weather packets stored in our database for station/object WB4YDL. If no packets are shown the sender has not sent any weather packets the latest 10 day(s).
| Time | Temp. | Humidity | Pressure | Rain* | Wind** | Luminosity | Snow |
|---|---|---|---|---|---|---|---|
| 1778158593 | 11.11° C | 84% | 1012.7 hPa | 0 mm | - | 197 W/m² | - |
| 1778158291 | 10° C | 90% | 1012.6 hPa | 0 mm | - | 162 W/m² | - |
| 1778157987 | 10.56° C | 99% | 1012.7 hPa | 0 mm | - | 140 W/m² | - |
| 1778157685 | 10° C | 99% | 1012.7 hPa | 0 mm | - | 123 W/m² | - |
| 1778157383 | 9.44° C | 99% | 1012.6 hPa | 0 mm | - | 105 W/m² | - |
| 1778157080 | 9.44° C | 99% | 1012.6 hPa | 0 mm | - | 91 W/m² | - |
| 1778156775 | 9.44° C | 99% | 1012.6 hPa | 0 mm | - | 80 W/m² | - |
| 1778156471 | 10° C | 99% | 1012.4 hPa | 0 mm | - | 71 W/m² | - |
| 1778156167 | 10° C | 99% | 1012.4 hPa | 0 mm | - | 64 W/m² | - |
| 1778155863 | 8.89° C | 99% | 1012.2 hPa | 0 mm | - | 56 W/m² | - |
| 1778155559 | 8.89° C | 99% | 1012.3 hPa | 0 mm | - | 52 W/m² | - |
| 1778155256 | 8.33° C | 99% | 1012.3 hPa | 0 mm | - | 46 W/m² | - |
| 1778154952 | 7.78° C | 99% | 1012.1 hPa | 0 mm | - | 42 W/m² | - |
| 1778154648 | 7.78° C | 99% | 1012.3 hPa | 0 mm | - | 38 W/m² | - |
| 1778154344 | 7.78° C | 99% | 1012 hPa | 0 mm | - | 35 W/m² | - |
| 1778154042 | 7.78° C | 99% | 1012 hPa | 0 mm | - | 29 W/m² | - |
| 1778153738 | 7.22° C | 99% | 1012.1 hPa | 0 mm | - | 26 W/m² | - |
| 1778153436 | 6.11° C | 99% | 1011.9 hPa | 0 mm | - | 22 W/m² | - |
| 1778153133 | 5.56° C | 99% | 1011.7 hPa | 0 mm | - | 20 W/m² | - |
| 1778152830 | 5.56° C | 99% | 1011.9 hPa | 0 mm | - | 16 W/m² | - |
| 1778152527 | 5.56° C | 99% | 1011.4 hPa | 0 mm | - | 12 W/m² | - |
| 1778152223 | 5.56° C | 99% | 1011.7 hPa | 0 mm | - | 9 W/m² | - |
| 1778151920 | 5.56° C | 99% | 1011.8 hPa | 0 mm | - | 6 W/m² | - |
| 1778151616 | 6.11° C | 99% | 1011.8 hPa | 0 mm | - | 4 W/m² | - |
| 1778151314 | 5.56° C | 99% | 1011.7 hPa | 0 mm | - | 2 W/m² | - |
* Rain latest hour (hover to see other rain measurements)
** Current wind speed in m/s (hover to see current wind gust speed)